Home > Weather > Kralendijk > Past weeks

Flag for Caribbean Netherlands Past Weather in Kralendijk, Bonaire, Caribbean Netherlands — Yesterday and Last 2 Weeks

Now
86 °F

Broken clouds.


Feels Like: 93 °F
Forecast: N/A
Wind: 15 mph from East

Location: Flamingo Airport - Bonaire

Current Time: Jul 23, 2016 at 11:19:09 AM

Latest Report: Jul 23, 2016 at 10:55 AM


Visibility: N/A

Pressure: 29.95 "Hg

Humidity: 66%

Dew Point: 73 °F

Location of KralendijkLocation

Past Weather in Kralendijk — Graph

°F

Kralendijk Temperature Yesterday

Maximum temperature yesterday: 90 °F (at 1:55 PM)
Minimum temperature yesterday: 82 °F (at 12:55 AM)
Average temperature yesterday: 85 °F

High & Low Weather Summary for the Past Weeks

 TemperatureHumidityPressure
High90 °F (Jul 9, 12:55 PM)94% (Jul 12, 8:55 PM)30.01 "Hg (Jul 12, 8:55 PM)
Low75 °F (Jul 15, 7:55 PM)59% (Jul 18, 12:55 PM)29.83 "Hg (Jul 15, 4:55 PM)
Average84 °F75%29.93 "Hg
* Reported Jul 8 9:55 AM — Jul 23 9:55 AM, Kralendijk, Weather by CustomWeather, © 2016

Note: Actual official high and low records may vary slightly from our data, if they occured in-between our weather recording intervals... More about our weather records

Advertising

Kralendijk Weather History for the Previous 24 Hours

Scroll right to see more
 ConditionsComfort  
Time TempWeatherWind HumidityBarometerVisibility
9:55 AM
Sat, Jul 23
86 °FScattered clouds.14 mph66%29.95 "HgN/A
8:55 AM86 °FScattered clouds.14 mph70%29.95 "HgN/A
7:55 AM84 °FPassing clouds.15 mph74%29.92 "HgN/A
6:55 AM82 °FPassing clouds.9 mph79%29.92 "HgN/A
5:55 AM81 °FPassing clouds.12 mph84%29.89 "HgN/A
4:55 AM81 °FPassing clouds.9 mph84%29.89 "HgN/A
3:55 AM82 °FPassing clouds.12 mph79%29.89 "HgN/A
2:55 AM82 °FWarm.13 mph79%29.89 "HgN/A
1:55 AM82 °FPassing clouds.13 mph79%29.92 "HgN/A
12:55 AM82 °FPassing clouds.14 mph79%29.92 "HgN/A
11:55 PM
Fri, Jul 22
82 °FPassing clouds.15 mph79%29.92 "HgN/A
10:55 PM82 °FPassing clouds.17 mph84%29.92 "HgN/A
9:55 PM82 °FWarm.14 mph84%29.92 "HgN/A
8:55 PM82 °FWarm.13 mph84%29.92 "HgN/A
7:55 PM84 °FWarm.14 mph74%29.92 "HgN/A
6:55 PM84 °FSunny.17 mph74%29.89 "Hg10 mi
5:55 PM86 °FScattered clouds.20 mph70%29.89 "HgN/A
4:55 PM86 °FPartly sunny.20 mph75%29.89 "HgN/A
3:55 PM86 °FPartly sunny.21 mph70%29.92 "HgN/A
2:55 PM88 °FBroken clouds.23 mph66%29.92 "HgN/A
1:55 PM90 °FPartly sunny.23 mph67%29.95 "HgN/A
12:55 PM88 °FWarm.24 mph66%29.98 "HgN/A
11:55 AM88 °FPartly sunny.20 mph70%29.98 "HgN/A
Weather by CustomWeather, © 2016

See weather overviewHow to use our weather pages